Hourly Data Report for June 19, 2021

WINNIPEG THE FORKS
MANITOBA
Current Station Operator: ECCC - MSC

49°53'18.008" N
97°07'46.007" W
230.00 m
5023262
71579
XWN

Download Data

Hourly Data (June 2021)
Hourly Data Report for June 19, 2021
TIME
LST
Temp Definition
°C
Dew Point Definition
°C
Rel Hum Definition
%
Precip. Amount Definition
mm

Wind Dir Definition
10's deg

Wind Spd Definition
km/h
Visibility Definition
km
Stn Press Definition
kPa
Hmdx Definition


Wind Chill Definition


Weather Definition


00:00 14.1 8.7 70 0.0 21 6   98.53     LegendNANA
01:00 13.2 9.0 76 0.0 0 1   98.51     LegendNANA
02:00 12.7 8.4 75 0.0 22 6   98.49     LegendNANA
03:00 11.9 8.0 77 0.0 21 7   98.47     LegendNANA
04:00 11.7 7.8 77 0.0 22 7   98.43     LegendNANA
05:00 11.8 7.9 77 0.0 21 8   98.43     LegendNANA
06:00 13.6 8.3 71 0.0 20 10   98.40     LegendNANA
07:00 13.8 8.5 71 0.0 21 9   98.40     LegendNANA
08:00 14.3 9.0 70 0.0 19 4   98.36     LegendNANA
09:00 16.6 9.2 61 0.0 20 6   98.30     LegendNANA
10:00 17.5 9.2 58 0.0 20 9   98.22     LegendNANA
11:00 18.9 10.3 57 0.0 20 9   98.18     LegendNANA
12:00 19.6 10.4 55 0.0 20 10   98.11     LegendNANA
13:00 20.3 10.9 55 0.0 20 11   98.04     LegendNANA
14:00 20.4 10.4 53 0.0 20 12   97.98     LegendNANA
15:00 21.0 10.3 50 0.0 23 8   97.92     LegendNANA
16:00 22.4 9.9 45 0.0 21 10   97.86     LegendNANA
17:00 22.2 7.8 39 0.0 28 7   97.80     LegendNANA
18:00 23.0 8.0 38 0.0 30 5   97.76     LegendNANA
19:00 21.7 7.8 41 0.0 31 3   97.78     LegendNANA
20:00 21.2 8.8 45 0.0 27 3   97.75     LegendNANA
21:00 20.5 9.1 48 0.0 22 2   97.73     LegendNANA
22:00 20.3 9.5 50 0.0 21 4   97.71     LegendNANA
23:00 20.3 8.9 48 0.0 25 7   97.67     LegendNANA

Notes on Data Quality.

Legend

  • E = Estimated
  • M = Missing
  • NA = Not Available*
  • [empty] = Indicates an unobserved value
Date modified: